GFSFLT1_sfc_wetblb_198.txt.gz
Wetbulb
73.49 72.70 73.18 73.71 73.45 72.82 71.93 71.36 70.80 70.30 70.50 70.94 71.06 69.71 67.99 66.80 64.33 64.95 66.17 66.42 69.18 69.98 69.02 69.99 69.62 69.47 69.50 69.47 69.85 70.41 70.87 71.07 71.11
73.82 72.81 72.87 73.16 73.28 72.85 72.09 71.30 70.41 69.74 69.95 70.85 71.35 69.05 67.78 63.88 64.31 64.72 65.05 65.39 69.89 70.00 69.84 69.04 69.30 68.93 69.13 68.87 68.73 69.96 70.10 70.26 70.42
74.52 73.49 72.75 72.89 72.71 73.01 72.26 71.50 70.55 69.58 69.42 70.26 70.26 68.89 67.51 65.56 64.76 64.68 64.61 69.85 69.70 69.51 69.13 68.85 69.40 68.83 69.00 68.77 68.40 68.73 69.12 69.36 70.11
74.64 74.07 73.17 72.70 72.82 72.74 72.58 71.81 70.88 69.90 69.23 69.38 70.28 68.57 67.31 63.45 64.59 65.90 64.83 69.99 68.76 69.01 68.27 68.85 68.47 68.91 68.60 68.86 68.17 68.02 68.22 68.60 69.33
74.28 73.93 73.58 72.69 72.92 72.33 72.05 72.35 71.50 70.47 69.83 69.03 69.95 68.84 67.21 63.59 64.89 65.07 66.19 68.33 67.90 68.24 68.29 68.32 67.52 68.32 67.66 68.36 68.10 68.08 68.07 68.33 68.83
72.66 73.06 73.25 73.32 72.71 72.81 72.08 71.78 71.90 71.33 70.73 70.15 70.22 68.34 63.00 63.16 64.60 65.10 69.48 68.18 68.59 67.91 67.94 67.63 67.50 67.24 66.68 67.21 67.62 67.06 66.50 67.17 67.53
71.95 72.39 73.39 73.53 73.12 72.87 72.26 71.71 71.77 70.67 67.63 66.56 68.64 65.05 63.61 63.28 64.48 65.43 69.44 68.17 68.45 67.77 67.42 66.91 66.75 66.50 67.32 66.68 67.16 66.72 66.16 66.31 66.58
69.29 69.77 71.14 70.51 72.07 69.69 70.46 69.49 68.62 67.55 67.14 66.61 66.85 64.39 61.78 63.75 64.49 67.10 69.21 68.40 68.05 67.74 67.11 66.67 66.13 66.24 66.01 66.34 66.63 66.57 66.15 66.27 66.34
65.58 69.08 69.04 68.73 68.72 67.59 67.67 66.54 65.96 65.82 65.75 64.77 65.08 62.31 63.67 64.37 64.52 66.06 68.88 68.48 67.69 67.57 66.96 66.24 66.16 65.86 65.71 65.58 65.26 65.72 65.50 65.53 65.45
65.89 67.65 68.19 67.62 66.78 67.17 66.17 65.91 65.12 63.86 62.72 62.42 65.19 62.53 63.45 63.70 64.31 64.37 68.46 68.65 67.48 67.19 66.78 66.18 65.78 65.81 65.12 65.03 65.02 65.38 65.24 65.19 65.27
66.78 67.99 67.61 67.21 67.24 66.62 66.11 65.54 64.25 63.26 62.49 61.74 64.14 63.11 63.31 63.83 64.00 64.35 66.04 67.86 67.56 66.98 66.77 66.11 65.48 65.24 65.08 65.00 64.68 64.95 65.07 65.07 64.59
67.58 67.69 67.41 67.21 67.38 65.90 65.50 64.31 63.34 62.74 63.49 63.56 65.42 63.60 62.63 63.00 62.69 64.35 64.33 64.84 66.67 67.09 66.38 65.80 65.23 64.88 64.24 64.48 64.35 63.93 64.60 64.56 64.63
66.80 66.13 66.35 66.58 65.69 65.91 65.06 63.46 62.17 61.94 62.48 64.10 64.40 62.85 63.72 62.04 62.49 64.11 64.26 62.80 63.19 65.05 66.40 65.73 65.31 64.68 64.37 64.24 63.84 63.87 63.66 64.18 64.24
66.38 65.12 65.64 66.06 65.22 64.81 64.45 63.45 62.62 61.94 62.46 64.01 62.27 61.68 62.47 62.76 63.23 62.68 62.69 62.31 61.90 61.61 65.22 65.32 65.51 64.34 64.55 64.36 63.44 63.62 63.35 62.99 63.87
66.07 66.07 66.26 65.52 64.30 63.01 63.87 63.66 62.99 62.35 62.90 61.99 60.15 60.17 60.82 60.87 61.86 61.69 62.36 62.50 61.65 61.38 62.62 61.11 62.14 64.93 64.03 64.15 63.42 63.23 62.80 62.43 62.86
64.90 64.96 65.11 64.62 63.80 63.63 63.88 62.06 62.20 59.98 61.36 58.93 58.04 58.57 57.36 58.05 59.89 60.55 61.84 62.32 62.83 61.04 60.60 61.58 60.65 61.22 64.75 64.15 63.52 63.11 63.05 62.59 62.24
64.60 64.73 63.99 64.58 62.78 62.07 62.66 61.18 59.38 59.02 59.65 56.95 56.33 54.14 55.31 57.29 58.94 60.41 60.98 60.61 62.35 60.50 61.87 61.49 61.43 60.89 58.99 60.22 63.67 63.40 62.45 62.06 61.94
62.77 65.18 64.26 64.38 64.06 62.57 62.76 61.31 59.25 57.53 57.29 56.91 54.46 50.82 50.96 56.52 57.84 59.35 59.86 59.89 60.37 60.49 60.62 59.75 60.69 60.00 59.54 59.22 61.01 62.23 62.54 61.64 61.34
61.57 61.13 60.23 60.93 62.88 63.43 62.14 61.41 59.11 58.32 56.50 56.89 56.85 54.18 54.84 53.38 52.30 57.20 58.39 57.57 57.09 57.50 59.12 59.64 59.85 59.64 59.48 60.35 61.07 61.71 61.50 61.34 60.81
60.57 60.87 61.12 62.00 63.77 63.07 61.43 59.74 59.22 58.36 57.39 56.19 54.60 53.01 52.81 52.75 50.87 52.69 53.96 54.46 54.50 54.59 54.81 55.55 56.57 57.24 58.31 59.31 60.15 60.41 60.64 60.62 60.49

GFSFLT1_sfc_wetblb_201.txt.gz
Wetbulb
73.05 72.64 73.20 73.54 73.16 72.13 71.25 70.53 70.15 70.29 70.50 70.37 70.26 68.30 68.86 67.52 64.42 64.04 64.79 65.13 70.02 70.31 68.93 69.53 68.93 69.16 68.76 68.78 69.82 70.07 69.97 70.70 70.34
73.70 72.70 72.92 73.46 73.46 72.42 71.48 70.50 69.77 69.73 70.33 71.42 69.41 68.54 68.41 64.28 63.61 63.80 64.83 66.60 69.50 69.28 69.20 69.46 69.10 68.82 68.70 68.43 68.30 69.41 69.31 69.77 69.86
74.20 73.21 72.62 72.72 72.73 72.57 71.87 71.19 70.19 69.47 69.97 70.00 68.84 68.32 67.82 65.21 63.84 63.86 64.95 68.91 69.03 68.56 69.21 68.36 68.84 68.85 69.14 68.55 68.88 68.46 69.28 69.43 69.60
74.51 73.82 73.04 72.74 72.75 73.05 72.34 71.44 70.65 69.77 69.57 69.79 69.14 67.94 67.14 63.45 64.04 65.11 64.27 68.15 68.30 68.60 68.43 67.52 68.02 67.33 68.40 67.93 67.35 67.51 68.39 68.44 68.62
74.75 73.94 73.53 72.69 72.94 72.56 72.47 72.05 71.44 70.38 69.69 69.60 69.57 68.26 67.27 63.68 64.25 64.43 65.57 68.42 67.79 68.59 67.79 67.53 67.08 66.81 67.42 67.49 67.59 67.56 67.52 67.43 67.41
72.78 72.95 73.36 73.40 72.69 72.73 72.23 72.21 72.11 71.06 70.42 69.99 69.89 67.61 63.21 63.44 64.07 64.52 69.14 68.49 68.02 67.96 67.30 66.81 66.75 67.02 66.99 67.06 67.13 67.31 67.00 67.10 66.30
71.57 72.11 73.52 73.64 73.26 72.76 72.60 71.83 71.80 71.84 66.95 65.80 68.74 62.86 63.87 63.24 63.95 64.74 69.37 68.45 68.10 67.55 66.85 66.00 66.60 66.40 66.19 66.52 66.24 66.11 66.57 66.44 66.32
69.50 69.23 70.76 70.53 72.06 69.86 70.50 69.58 68.15 66.94 66.34 65.56 64.86 63.61 61.75 64.21 64.17 66.00 69.15 68.15 67.81 67.45 66.53 66.19 66.20 66.03 65.99 66.12 66.13 66.02 66.46 66.48 66.08
66.31 67.51 68.16 68.61 68.64 67.22 67.25 66.48 66.32 66.53 65.90 63.92 64.89 62.96 61.91 64.54 65.01 64.88 68.99 67.96 67.62 67.22 66.30 66.10 65.61 65.04 65.70 65.85 65.37 65.16 65.07 65.86 65.70
64.93 66.47 67.55 68.31 67.12 67.03 66.56 65.85 65.41 64.26 63.06 62.33 63.23 61.81 62.85 63.52 65.20 65.03 68.10 68.09 67.30 66.69 66.27 65.67 65.84 65.30 65.05 65.00 64.98 64.88 64.98 64.99 65.31
65.10 65.45 66.26 67.11 65.52 65.26 65.69 65.21 64.73 63.70 62.34 61.07 62.87 61.97 63.26 64.19 64.53 64.75 64.96 67.75 67.21 66.48 66.15 65.54 65.25 64.80 65.20 64.89 64.45 64.44 64.47 64.33 64.60
65.89 66.14 66.84 66.66 66.25 66.54 65.51 64.68 63.53 62.68 62.75 60.94 63.31 62.41 62.38 62.90 63.61 63.87 64.40 65.04 66.81 66.68 65.95 65.23 64.56 64.16 65.12 64.37 64.25 64.19 63.90 64.26 63.96
66.27 65.69 66.62 66.44 66.37 65.99 65.27 63.65 62.68 61.66 61.51 61.40 63.43 62.06 63.16 63.06 62.89 64.05 63.05 62.90 62.39 64.76 65.85 64.96 64.46 64.48 64.70 64.11 64.19 63.74 63.50 63.97 63.88
66.43 65.69 66.09 66.14 65.46 65.44 64.94 63.62 61.58 60.60 61.09 62.21 61.28 62.79 62.82 62.77 63.44 62.42 61.90 61.64 61.41 61.14 65.22 64.66 64.79 64.14 64.29 63.97 64.15 63.52 63.14 63.31 63.38
65.94 65.72 64.95 64.96 64.25 63.54 63.59 63.19 62.71 60.72 61.65 62.36 60.55 61.16 61.77 61.87 61.50 61.93 61.64 61.07 61.25 61.01 61.96 60.77 60.94 64.39 63.44 63.43 63.32 62.91 63.21 62.89 63.07
65.43 65.57 65.83 65.62 64.57 64.11 63.94 62.58 62.77 61.13 60.45 59.06 58.59 58.74 59.42 59.04 59.70 59.58 59.68 60.84 61.76 60.28 61.69 61.71 61.49 61.84 63.34 63.42 63.00 63.19 62.68 62.14 62.39
64.80 64.39 64.35 63.89 62.52 62.85 62.69 62.03 60.70 59.40 60.46 58.33 56.51 55.47 56.84 57.67 58.04 58.27 59.61 60.68 61.80 60.31 61.49 61.22 61.10 60.54 59.99 61.11 63.17 63.05 61.99 61.94 61.59
63.96 64.09 64.19 63.15 62.80 61.90 62.32 61.85 60.62 58.62 60.32 59.28 55.56 51.32 52.09 55.04 56.57 57.87 59.13 59.48 59.57 60.15 60.54 60.49 60.19 59.86 59.35 59.30 60.55 62.02 62.14 62.29 60.80
62.52 64.08 63.91 63.47 62.69 61.55 62.13 62.34 60.68 60.60 59.02 57.23 56.05 54.75 54.78 50.82 52.11 57.10 56.15 56.12 55.59 55.61 56.53 56.89 57.79 58.63 59.12 59.89 60.96 60.15 61.00 61.48 61.87
61.15 62.25 60.80 59.82 60.13 61.31 62.07 60.94 59.66 60.28 59.25 56.53 53.25 52.71 52.03 51.09 50.39 51.38 53.01 53.31 53.33 53.28 53.33 54.04 54.69 55.46 56.70 58.70 59.93 60.63 60.59 59.83 60.75

GFSFLT1_sfc_wetblb_207.txt.gz
Wetbulb
72.54 73.05 74.14 73.51 72.63 71.57 71.12 71.08 71.00 70.74 71.09 69.71 69.46 69.23 67.97 67.72 69.50 69.36 69.35 68.77 69.77 69.45 69.26 68.27 69.37 69.38 68.94 68.93 68.83 69.27 69.18 69.02 68.79
73.28 72.74 73.28 73.26 72.85 71.89 70.98 70.76 70.48 70.25 70.94 70.26 69.53 68.61 67.60 68.53 68.85 68.57 68.60 68.22 69.65 68.81 68.70 68.20 68.84 68.84 69.12 68.77 69.08 68.89 68.95 68.59 68.40
74.23 73.33 73.13 73.14 73.40 72.40 71.34 70.69 70.26 70.58 71.75 69.83 69.40 68.51 66.96 67.13 67.68 67.72 68.22 69.39 68.68 68.28 67.52 67.91 68.27 68.68 68.24 68.23 68.47 68.64 68.48 68.14 67.70
74.90 73.95 73.26 73.02 73.55 72.95 72.25 71.09 70.26 70.39 70.65 70.11 69.27 68.64 67.12 67.59 67.99 67.28 68.41 69.22 68.40 67.83 67.42 67.93 68.09 67.79 67.93 67.99 68.04 68.14 68.00 67.71 67.54
74.83 73.83 73.45 73.11 72.97 73.02 72.77 71.88 70.91 70.18 70.39 70.24 70.18 68.50 67.34 67.60 67.86 68.74 68.59 68.37 68.08 67.38 67.19 67.28 67.30 67.34 67.63 67.49 67.46 67.64 67.63 67.40 67.38
73.31 73.62 73.43 73.26 73.04 73.05 72.86 72.57 71.67 71.39 70.80 70.37 70.21 68.63 67.95 67.75 68.38 69.07 68.08 68.23 67.58 66.97 66.88 66.89 67.05 67.41 67.24 67.01 67.20 67.08 66.84 66.96 66.50
72.63 72.42 73.30 73.30 72.80 72.65 72.64 72.58 71.82 71.54 69.86 69.52 70.25 68.72 67.44 67.38 67.92 68.89 67.99 67.89 67.31 66.80 66.29 66.20 66.56 66.75 66.80 66.85 66.75 66.44 66.66 66.53 66.19
72.74 72.44 72.50 73.66 72.68 72.29 72.33 72.18 71.60 70.09 69.80 69.03 69.06 68.38 67.35 67.50 67.59 68.24 68.05 67.57 67.16 66.36 65.45 65.74 65.80 66.24 66.33 66.53 66.16 66.26 66.09 66.06 65.99
72.32 71.96 72.10 72.52 72.94 72.37 72.27 71.90 71.77 70.23 69.73 69.29 68.35 68.36 67.29 67.23 67.43 67.17 68.23 67.88 67.45 66.86 65.65 66.31 65.90 65.39 65.62 65.73 65.82 65.67 65.85 65.57 65.33
71.43 71.71 71.65 71.33 70.72 71.27 71.61 71.46 70.90 70.11 69.08 68.59 68.22 67.87 67.42 67.11 67.45 66.37 67.58 67.34 67.33 66.80 66.28 65.61 65.66 65.40 65.19 65.33 65.48 65.41 65.19 65.15 64.88
70.88 69.95 70.52 71.04 71.10 70.51 70.58 71.07 70.30 69.53 68.90 67.81 67.46 67.56 67.85 67.20 67.51 66.64 67.09 66.78 66.75 66.63 65.94 65.31 65.45 65.31 65.24 64.67 64.87 65.06 64.69 64.61 64.32
70.44 69.76 69.49 70.32 70.92 70.58 69.97 69.55 69.30 68.56 68.10 67.20 66.07 65.93 66.91 67.07 67.11 66.07 66.05 66.87 66.82 66.67 65.85 65.23 65.36 64.87 64.83 64.70 64.24 64.26 64.51 63.69 63.80
68.40 68.54 69.15 69.91 68.52 68.92 68.75 68.25 66.31 66.66 66.83 66.51 65.87 65.75 66.26 66.81 66.87 66.35 66.03 65.29 64.83 66.41 66.41 65.06 64.83 64.60 64.46 64.02 63.86 63.72 64.01 63.60 63.26
67.08 67.09 68.55 69.30 68.80 68.18 67.36 66.21 66.90 64.43 63.89 65.13 65.15 65.74 65.53 65.63 65.96 65.15 64.33 63.51 64.39 66.18 65.59 64.22 64.36 64.07 64.45 63.89 64.24 63.73 63.40 63.33 62.97
65.55 67.17 67.81 68.00 66.58 65.96 66.23 65.66 65.45 64.56 64.11 64.00 63.19 63.64 64.57 65.78 65.53 65.40 63.39 63.47 63.90 65.52 65.14 63.55 63.98 63.89 63.69 63.52 63.73 63.63 63.38 63.29 62.78
63.73 65.36 66.75 66.99 65.96 65.19 65.27 64.48 63.34 62.66 64.50 62.05 60.66 60.93 63.61 64.15 64.15 63.15 62.31 62.42 63.05 64.54 63.34 63.15 63.18 62.98 63.23 63.77 63.21 64.10 63.26 62.91 62.60
61.10 63.30 63.96 64.74 64.86 64.57 65.00 65.90 63.33 63.37 62.46 61.47 59.57 56.25 57.96 59.29 61.16 61.09 61.38 62.10 62.86 62.73 63.28 61.50 61.06 61.47 62.23 62.52 62.78 62.77 63.15 62.95 62.12
61.69 61.84 62.92 63.69 64.65 63.96 64.68 65.46 64.65 62.17 62.41 63.22 61.10 55.51 54.76 55.95 57.58 57.45 57.91 58.25 58.83 59.06 59.41 59.50 59.92 60.63 61.84 61.41 60.68 61.28 61.92 62.43 62.84
61.25 62.75 62.60 62.38 63.51 64.20 64.31 64.70 65.38 64.65 60.04 60.46 60.70 61.40 60.44 56.09 52.79 54.36 53.84 54.84 54.68 55.79 56.20 56.22 56.81 57.74 59.02 59.93 60.59 61.14 61.03 61.28 61.72
61.39 62.36 62.43 62.24 62.66 63.62 64.08 63.69 63.25 65.02 62.68 61.81 58.54 59.23 58.40 58.88 55.87 50.58 50.65 51.63 52.33 52.93 53.40 54.04 54.95 55.74 56.95 59.00 59.94 60.32 60.51 60.49 60.73

GFSFLT1_sfc_wetblb_210.txt.gz
Wetbulb
72.56 73.10 74.21 73.62 72.51 71.59 71.36 71.55 71.15 70.84 70.55 69.28 69.45 68.18 67.52 69.04 69.60 69.64 69.19 70.39 68.89 69.27 68.40 68.72 68.92 68.84 69.08 69.14 69.23 69.15 68.79 68.83 68.70
73.35 72.98 73.97 73.59 72.83 71.70 71.14 71.09 70.92 70.71 71.18 69.38 69.13 67.89 67.15 68.91 68.79 69.00 69.22 69.44 68.57 68.00 68.18 67.99 68.50 68.49 68.53 68.91 68.73 68.63 68.73 68.43 68.38
74.22 73.39 73.09 73.44 73.49 72.47 71.25 70.84 70.54 70.83 71.81 69.89 69.31 67.80 66.96 68.47 68.52 68.89 69.30 68.73 68.06 67.93 68.31 68.45 68.07 68.04 68.53 68.47 68.32 68.21 68.16 68.04 67.85
74.39 74.40 73.53 73.26 73.57 73.01 72.22 71.13 70.51 70.93 71.39 70.09 69.59 68.32 66.73 69.19 68.75 68.64 69.10 67.95 67.59 67.39 67.21 67.59 67.52 67.80 67.71 67.85 67.84 67.88 67.79 67.68 67.08
73.64 73.73 73.83 73.38 73.15 73.56 73.01 72.16 71.04 70.46 71.08 70.75 70.11 68.72 67.51 69.06 69.46 70.62 69.07 67.81 66.97 67.05 67.04 67.01 67.59 67.34 67.44 67.52 67.43 67.45 67.27 67.23 66.92
73.94 73.29 73.65 73.51 73.12 73.02 73.28 72.49 71.96 71.43 70.84 70.70 70.88 69.32 69.14 68.85 69.59 70.45 67.64 67.27 66.75 66.56 66.64 66.86 66.96 67.02 67.24 66.85 66.78 66.75 66.57 66.43 66.41
73.16 72.62 72.93 73.41 73.24 72.98 72.65 72.55 71.85 71.46 70.56 70.26 70.53 69.90 69.40 68.96 68.95 69.51 68.04 67.29 66.58 66.14 65.62 66.49 66.46 66.55 66.77 66.32 66.42 66.28 66.03 65.96 65.93
73.19 72.94 73.09 72.65 72.85 72.50 72.24 72.21 72.08 71.07 70.22 70.16 69.80 69.92 69.52 69.13 69.12 69.10 68.20 67.67 66.53 65.90 65.26 65.63 65.90 65.82 66.18 66.06 65.95 66.12 65.93 65.67 65.59
72.09 72.23 72.66 72.43 71.98 71.14 71.48 71.67 71.84 71.45 70.73 70.21 69.57 69.39 69.17 69.13 68.92 68.94 68.15 67.94 67.29 66.51 66.03 65.61 65.20 65.50 65.69 65.82 65.70 65.51 65.36 65.10 65.06
73.07 71.96 72.98 72.33 72.44 71.84 71.10 71.16 70.94 70.61 70.27 69.67 69.48 69.09 68.82 68.76 68.79 69.44 67.92 67.71 67.35 66.81 66.33 65.94 65.20 65.25 65.15 65.29 65.41 65.04 64.65 64.68 64.58
72.22 71.68 71.35 71.28 73.19 72.42 71.43 70.51 70.19 70.02 70.08 69.45 68.77 69.06 68.41 68.87 69.18 68.96 67.37 67.29 67.04 66.58 66.26 65.60 65.32 65.14 64.63 64.46 64.68 64.68 63.97 64.04 64.24
71.09 71.33 71.95 71.31 73.08 72.01 71.62 70.75 69.88 69.30 69.53 69.30 69.19 68.80 68.11 68.73 68.95 68.89 67.44 67.21 66.72 66.69 65.99 65.59 65.44 64.79 64.48 63.86 63.82 64.33 63.81 63.50 63.71
69.53 69.73 69.51 72.04 72.26 71.75 71.32 69.42 67.87 68.42 68.48 68.54 68.61 68.30 67.64 67.96 68.76 67.68 66.63 66.98 66.66 66.00 65.87 65.30 64.62 64.07 63.74 63.71 63.45 63.47 63.36 63.16 63.03
65.57 66.86 67.98 68.64 69.77 70.05 69.74 69.36 68.25 67.17 67.19 67.88 68.11 67.89 67.19 67.57 67.76 66.31 66.74 66.90 65.50 66.06 65.68 64.49 64.26 63.94 63.97 63.71 63.26 63.02 63.56 62.89 62.92
63.85 65.15 66.85 67.60 67.68 67.62 68.99 68.52 68.14 68.20 65.09 65.47 65.65 66.57 67.01 67.66 67.42 66.62 66.26 65.09 64.15 64.41 65.46 65.42 65.12 63.59 63.25 63.25 63.11 62.88 62.83 62.94 62.69
62.26 62.03 64.04 64.93 67.28 67.29 67.08 66.20 65.98 65.38 66.30 63.01 62.34 62.87 64.96 65.94 66.23 66.45 64.37 62.86 63.54 64.18 64.99 65.07 64.16 64.06 63.50 63.55 63.54 63.36 63.47 62.64 61.95
62.27 63.36 61.95 63.13 63.99 65.57 65.94 65.41 64.48 64.41 64.73 63.05 60.47 56.86 58.38 59.25 60.87 62.88 62.49 62.63 63.10 62.91 63.46 64.11 62.81 62.50 63.08 62.99 61.77 62.06 63.00 63.14 62.38
61.40 61.97 63.65 62.26 63.15 63.50 64.85 65.17 64.80 62.93 62.46 64.76 62.43 56.78 55.28 55.91 57.27 55.80 58.38 59.60 58.95 59.19 59.93 60.56 61.02 61.78 62.87 62.18 61.92 61.84 62.01 62.48 62.96
60.64 61.81 63.14 64.40 63.40 62.91 63.43 64.95 64.62 65.30 60.58 64.75 64.71 63.94 61.01 55.25 52.20 53.87 53.94 54.79 55.15 56.33 56.72 57.82 57.65 58.68 60.24 60.12 60.46 60.70 60.81 60.90 61.63
59.77 60.79 61.80 62.71 63.40 62.62 62.93 64.11 63.91 64.85 63.07 62.70 62.87 63.41 62.81 62.65 56.09 50.26 50.26 51.87 52.36 53.08 54.29 55.32 55.99 57.13 58.35 60.03 60.62 60.41 60.38 60.99 60.88

GFSFLT1_sfc_wetblb_216.txt.gz
Wetbulb
72.71 72.91 73.99 73.62 72.51 71.65 71.85 71.98 71.53 71.31 69.88 69.22 68.53 67.70 68.64 70.02 66.13 66.44 68.38 65.56 68.68 68.99 69.32 68.60 69.24 68.99 69.27 68.58 69.02 69.08 68.25 68.38 67.59
73.73 73.00 73.19 73.80 73.11 72.14 71.50 71.72 71.70 71.27 71.31 69.68 68.87 68.04 68.77 67.78 65.18 66.64 65.69 65.57 68.57 68.88 68.86 68.54 68.43 68.55 68.50 68.72 68.74 67.62 67.46 67.48 67.39
74.05 73.74 73.94 74.12 73.71 72.76 71.93 71.49 71.52 71.34 71.17 70.98 69.78 68.75 69.33 67.23 66.15 66.20 65.85 68.49 67.89 68.29 67.76 68.57 67.76 67.89 67.81 67.64 67.54 67.97 67.39 67.79 67.53
74.62 74.19 73.99 74.14 73.95 73.61 72.69 71.87 71.37 71.08 71.50 71.94 70.27 69.62 69.85 66.19 65.40 67.68 65.53 69.31 67.86 67.76 67.32 68.01 67.91 67.82 67.37 67.92 67.29 67.63 67.37 66.64 67.28
74.55 74.56 74.16 74.00 73.88 73.94 73.63 72.66 71.93 71.32 71.54 72.05 70.76 70.83 70.08 65.61 65.07 66.95 66.91 68.48 67.55 67.11 67.13 67.19 67.34 67.71 67.09 66.90 66.92 66.51 66.68 66.15 66.64
72.07 72.47 73.42 74.48 74.55 74.33 73.61 73.25 73.12 72.43 71.89 72.37 72.02 71.30 67.08 64.98 66.11 66.89 69.68 68.50 67.87 66.86 66.40 66.37 66.71 67.16 66.72 66.97 66.78 66.43 66.08 65.82 66.27
71.14 71.78 72.82 73.52 73.88 73.73 73.47 73.11 72.59 71.75 68.58 68.60 71.14 68.69 67.49 66.34 66.11 67.26 69.99 68.70 68.29 66.76 66.41 65.85 65.80 66.26 66.51 66.77 66.28 65.84 65.99 65.39 65.92
70.50 68.73 71.14 70.73 72.14 70.30 71.57 71.15 70.64 69.32 68.56 67.55 67.48 67.63 67.22 66.62 66.38 68.46 70.05 69.26 68.39 67.01 66.39 65.59 65.58 65.95 66.06 66.36 65.82 65.70 65.37 65.00 65.62
68.59 69.43 69.74 68.71 70.14 69.19 68.56 69.50 69.35 68.85 68.80 68.37 67.45 67.12 67.25 66.63 66.27 67.67 69.83 69.57 68.52 67.61 66.64 66.10 65.03 65.40 65.24 65.62 65.49 65.04 64.73 64.93 65.75
69.10 69.01 69.16 68.03 67.65 68.28 66.11 68.34 68.83 68.32 68.26 68.09 66.97 66.98 66.92 66.42 66.21 66.63 69.16 69.33 69.14 68.10 67.72 66.88 65.85 64.82 64.57 64.73 64.97 64.70 64.21 64.46 65.01
67.02 67.25 68.29 68.43 67.60 67.38 67.15 67.95 68.04 67.05 66.96 65.48 64.77 66.81 66.62 66.05 65.68 66.38 67.02 68.89 69.25 68.54 68.15 67.35 66.60 65.34 64.21 63.86 64.34 63.96 63.94 63.88 64.20
63.76 64.74 65.11 66.95 68.56 67.45 66.66 67.42 66.62 66.18 66.28 65.95 64.89 65.91 65.84 66.05 66.04 65.91 65.87 66.62 67.89 68.31 68.13 67.26 66.75 65.72 64.80 63.62 63.73 63.38 63.41 63.56 63.85
60.30 61.94 63.85 65.70 66.78 67.56 65.95 65.71 64.76 64.84 65.43 64.93 64.99 65.74 65.70 66.12 66.45 66.90 65.59 64.67 64.21 66.92 67.82 67.41 66.86 66.08 65.13 63.77 63.06 63.26 62.96 63.22 63.51
56.07 59.01 60.39 62.90 64.33 65.44 66.39 65.37 65.52 63.69 63.69 64.39 63.86 64.88 64.99 64.79 65.90 66.14 65.37 64.37 63.76 63.47 66.64 66.94 66.45 65.35 65.30 64.55 63.60 62.79 62.92 62.62 62.74
54.87 55.93 57.99 59.77 60.10 62.32 64.29 64.09 64.99 64.82 62.64 64.53 63.41 63.42 63.99 63.81 63.76 64.58 65.15 64.56 64.39 64.03 63.53 63.28 64.00 64.87 65.22 64.65 64.02 63.24 63.04 62.78 62.60
54.40 54.12 55.06 57.81 59.11 59.36 61.52 63.11 63.08 62.80 63.24 60.23 60.54 61.53 62.25 61.84 62.79 63.73 64.12 64.06 63.87 63.53 63.37 62.97 62.68 62.87 63.78 63.72 63.56 63.18 63.33 63.48 62.93
52.96 53.33 54.22 55.54 56.68 58.84 59.57 60.42 61.25 62.49 63.95 60.12 59.63 56.54 58.55 58.62 59.59 62.25 63.56 63.10 63.34 62.84 63.09 62.95 62.87 62.43 61.83 61.01 62.53 62.58 63.15 63.28 63.19
51.14 51.04 52.25 54.43 55.46 57.29 59.16 59.60 59.99 59.94 61.91 61.96 60.02 55.74 55.27 55.50 56.65 55.77 60.42 61.87 61.49 61.16 61.07 60.45 60.81 61.37 60.83 61.72 60.91 61.58 61.55 62.01 62.61
50.12 50.77 51.31 51.79 54.01 56.43 57.80 59.77 59.39 59.61 59.41 61.84 63.20 61.66 58.89 55.14 51.23 53.22 53.68 55.83 57.10 58.10 58.13 57.97 58.65 59.32 59.35 60.32 60.76 61.08 61.39 61.40 61.39
48.32 49.52 49.48 50.27 52.96 55.50 56.54 57.31 58.15 58.80 58.97 59.31 58.98 60.76 60.21 58.09 53.55 49.56 49.62 51.11 51.86 53.39 55.42 56.20 56.87 57.45 58.05 59.29 60.25 61.23 60.82 61.15 61.36

GFSFLT1_sfc_wetblb_219.txt.gz
Wetbulb
72.78 73.14 74.13 73.91 72.91 72.02 72.14 72.16 71.78 71.67 70.13 69.61 68.68 67.68 68.47 69.68 65.46 65.79 66.80 64.79 68.99 69.71 68.56 69.35 68.92 68.97 68.98 68.68 67.77 67.79 68.29 67.67 67.43
74.01 73.25 73.14 74.25 73.64 72.55 71.99 72.06 71.92 71.55 71.28 70.07 69.48 68.49 68.37 66.96 64.47 64.57 64.34 65.48 68.80 68.56 68.76 68.06 68.22 68.37 68.00 67.16 68.31 67.63 68.02 67.78 67.74
74.43 74.09 74.22 73.61 74.07 73.35 72.37 71.85 71.87 71.74 71.52 71.41 70.35 69.47 70.01 66.78 64.47 64.86 64.52 68.82 68.47 67.96 68.53 68.15 68.17 67.54 68.00 67.53 67.74 67.21 66.69 67.26 66.94
75.01 74.63 73.91 74.22 74.10 73.97 73.09 72.31 71.77 71.69 71.59 71.76 71.23 70.44 70.56 65.98 64.24 65.99 64.90 69.90 68.56 67.81 67.57 67.69 68.12 67.46 67.05 67.51 66.95 66.99 66.46 66.92 66.62
75.04 74.81 74.68 74.56 74.30 74.19 74.02 73.28 72.43 72.03 71.87 72.13 71.96 71.33 70.82 66.46 63.70 65.06 65.96 69.27 68.64 67.86 67.54 67.37 67.91 67.46 66.82 67.39 66.90 66.24 65.84 66.14 66.60
72.32 72.82 73.34 74.06 74.05 73.81 74.11 73.65 73.31 72.95 72.35 72.57 72.45 71.52 67.70 65.61 63.72 65.34 69.74 69.46 68.77 68.25 67.19 66.87 67.13 67.06 66.92 66.64 66.15 65.82 65.15 65.69 65.91
71.06 71.00 72.20 73.22 72.99 73.45 73.58 73.68 73.35 72.50 69.02 68.74 71.40 69.41 67.80 66.14 64.38 65.84 70.32 69.70 69.00 68.05 67.29 66.78 66.47 66.81 66.45 66.51 65.29 65.46 64.84 65.38 65.61
68.33 68.16 69.23 68.76 71.46 69.87 70.48 70.68 70.81 70.05 69.23 67.64 67.21 68.16 67.12 66.91 65.40 67.65 70.32 70.07 69.24 68.32 67.38 66.65 66.59 66.44 66.18 66.06 64.93 64.62 65.00 65.64 65.66
66.86 67.36 67.82 66.85 68.60 67.83 68.05 68.70 69.11 69.50 69.52 68.59 67.41 66.90 67.00 67.01 66.20 67.49 70.03 70.48 69.39 68.59 67.91 66.95 66.51 66.03 66.27 65.83 64.90 64.36 64.24 64.92 65.42
66.38 66.56 66.35 66.36 66.05 66.36 66.06 65.15 66.41 68.31 68.87 68.69 67.55 66.66 66.12 65.37 65.97 66.73 69.47 70.06 70.19 68.80 68.32 67.63 66.75 65.88 66.17 65.11 64.86 64.16 63.79 63.84 64.41
62.38 62.30 63.57 64.92 67.12 66.09 64.92 63.28 62.39 64.95 67.70 67.80 67.48 66.86 66.42 66.32 65.67 66.24 68.06 69.20 69.44 69.08 68.80 68.16 67.39 66.32 65.59 65.05 64.59 64.04 63.31 63.68 63.68
56.51 57.33 60.03 63.32 64.60 66.72 64.65 65.41 65.87 65.96 66.18 65.50 65.08 64.98 66.19 65.95 65.26 65.98 66.06 67.08 68.43 69.13 69.22 68.41 67.84 66.86 65.86 65.14 64.61 63.70 62.99 63.22 63.28
53.31 53.62 55.75 59.23 62.24 63.41 64.88 64.63 63.61 62.94 63.68 64.34 64.75 65.23 65.00 65.03 65.48 65.49 65.64 66.14 66.37 67.67 68.35 68.46 67.95 67.18 66.30 65.08 64.55 64.11 63.02 62.78 62.68
53.66 53.46 54.07 55.45 57.78 59.25 61.46 63.16 64.87 63.39 62.50 62.82 63.50 63.88 65.42 65.47 65.64 64.82 64.57 64.63 64.22 64.28 67.36 67.76 67.64 67.15 66.58 65.64 64.76 63.93 63.48 62.54 62.37
50.78 51.69 52.95 54.12 54.53 57.37 58.52 59.57 61.76 62.98 63.03 63.27 63.25 61.22 62.48 63.52 63.48 64.74 64.64 63.67 63.18 63.44 64.37 64.39 64.52 66.80 66.16 65.90 65.36 64.03 63.53 62.84 63.00
48.68 49.01 50.28 52.15 52.76 54.43 56.59 57.73 58.59 59.51 61.62 59.82 58.40 58.56 60.78 61.60 61.82 63.10 63.79 63.28 63.57 63.60 63.50 63.52 62.89 63.18 65.89 65.11 65.02 64.43 63.87 63.31 62.62
48.38 47.84 48.48 48.56 49.55 52.89 54.38 56.91 56.94 58.40 60.58 59.09 57.53 56.67 58.07 58.91 59.45 62.44 63.45 63.05 63.48 62.97 63.04 62.68 61.95 62.41 62.04 62.44 63.79 63.12 62.90 62.61 62.55
47.49 47.38 46.92 47.96 49.13 50.06 52.24 54.89 56.69 55.62 58.05 59.99 57.84 55.42 54.23 55.68 55.79 56.18 58.03 62.43 62.17 62.37 62.39 62.21 62.13 61.42 60.54 61.43 61.26 61.99 61.67 61.95 62.30
47.22 46.95 46.59 46.74 47.70 47.73 51.25 55.54 56.06 56.82 55.34 56.97 60.60 58.46 55.92 52.84 51.85 53.50 53.21 56.64 60.56 60.71 60.35 60.11 60.29 60.12 60.35 60.23 60.80 61.29 61.86 61.30 61.45
46.06 46.19 45.99 46.27 46.72 49.69 51.56 51.27 51.68 54.03 55.73 56.02 56.82 57.51 57.45 54.83 53.65 50.40 50.48 52.85 52.91 54.81 58.51 58.61 58.39 58.85 59.16 59.22 60.59 61.21 61.71 61.76 61.86

GFSFLT1_sfc_wetblb_222.txt.gz
Wetbulb
72.94 72.78 74.05 74.26 73.26 72.32 72.34 72.25 71.90 71.51 70.28 69.78 68.85 67.77 68.49 68.09 65.02 64.36 66.58 64.72 69.65 68.63 69.34 68.63 68.45 68.01 68.04 67.65 67.31 67.89 67.96 67.54 66.85
73.89 73.50 72.98 73.99 74.00 73.21 72.22 72.29 72.16 71.92 71.49 70.35 69.91 68.67 67.99 65.22 64.16 63.70 64.20 65.23 68.88 68.58 68.58 68.07 67.62 67.52 66.90 67.75 66.96 66.64 67.91 66.63 66.79
74.05 73.91 73.99 73.39 73.86 74.03 73.09 72.30 72.16 72.07 71.84 71.70 70.73 70.03 70.10 65.67 64.21 63.93 63.98 68.88 68.92 68.63 68.45 68.38 67.31 67.72 68.18 67.84 67.31 66.43 67.17 66.47 66.61
74.17 74.49 73.99 73.85 73.38 73.96 73.86 72.97 72.24 72.05 71.98 71.76 71.85 71.31 70.94 64.76 63.89 65.16 64.25 69.81 69.05 68.69 68.21 67.97 67.52 66.57 67.04 67.05 66.45 65.81 66.61 66.07 66.07
72.98 73.37 73.66 73.60 73.90 73.74 73.92 73.70 72.98 72.51 72.38 72.01 72.38 72.16 71.39 66.69 63.46 64.54 64.50 69.84 69.47 68.67 68.20 67.94 67.90 66.46 67.19 66.54 65.44 65.36 65.67 65.85 66.70
69.70 71.37 72.15 72.41 72.89 73.49 73.37 73.44 73.58 73.38 72.70 72.51 72.24 72.07 68.17 65.99 63.19 64.33 67.43 69.88 69.72 69.24 68.31 67.98 67.98 67.11 66.81 65.62 65.37 64.98 65.49 65.32 66.50
69.60 69.22 69.94 70.96 71.83 72.28 72.58 72.57 72.94 72.60 70.29 70.03 71.32 70.06 67.97 66.36 64.64 64.74 68.62 69.93 70.11 69.34 68.43 67.89 67.69 67.40 66.91 65.59 64.73 64.64 65.07 64.86 65.76
67.30 67.12 67.01 66.95 68.81 68.55 69.56 69.42 69.67 69.82 69.94 68.89 68.42 69.07 67.85 67.73 65.70 66.33 69.85 70.56 70.31 69.49 68.45 67.80 67.54 67.24 66.90 65.81 65.14 64.23 64.86 64.95 65.69
62.74 63.52 65.39 66.74 66.85 66.00 67.00 67.34 68.12 68.38 69.01 68.71 67.80 67.09 66.86 67.29 66.66 66.16 69.60 70.96 70.57 69.99 68.85 68.05 67.70 67.13 66.72 66.11 65.04 64.33 64.00 64.53 65.39
57.63 57.28 60.28 63.15 65.57 65.72 65.25 65.82 66.47 66.74 67.15 68.13 68.18 67.18 66.40 65.75 66.18 65.56 69.16 70.51 70.80 69.98 69.35 68.42 67.89 67.05 66.96 66.20 65.29 64.34 63.93 63.73 64.13
53.13 54.24 56.41 58.18 61.23 63.29 65.61 64.58 64.37 63.17 65.52 67.51 67.60 67.01 66.61 66.22 65.44 65.69 67.33 69.46 70.35 70.21 69.78 68.94 68.09 67.36 67.09 65.99 65.36 64.73 64.03 63.75 63.36
51.59 52.53 53.20 55.99 58.15 59.34 61.09 63.65 65.33 64.65 64.32 64.45 65.82 66.90 66.78 66.67 66.12 65.64 66.34 67.97 68.82 69.32 70.17 69.20 68.52 67.79 66.95 66.09 65.58 64.94 64.21 63.83 63.39
50.28 49.51 50.77 53.10 54.72 56.60 57.18 60.36 61.80 63.65 63.35 63.57 64.19 64.68 64.91 65.47 66.22 65.59 65.83 66.41 67.06 68.43 68.77 69.87 68.99 68.04 67.21 66.40 65.71 64.97 64.21 64.09 63.32
47.33 47.66 48.59 51.11 51.84 53.48 55.82 56.93 58.61 58.97 60.97 61.71 62.78 63.05 63.84 64.28 65.48 65.06 64.87 65.44 66.00 66.53 67.85 68.85 68.50 68.34 67.66 66.84 65.97 65.34 64.65 64.01 63.53
46.66 46.78 47.09 48.32 49.04 49.98 52.19 54.24 55.43 57.33 59.83 61.24 61.80 61.36 61.96 62.79 63.89 63.95 64.52 64.66 64.53 64.42 65.29 66.31 66.28 67.99 67.74 67.09 66.59 65.63 64.99 64.31 63.80
45.71 45.36 46.20 46.54 46.03 46.87 49.77 52.60 53.66 55.28 57.78 59.03 58.11 60.36 61.86 61.57 62.83 64.44 63.81 63.56 63.49 63.78 64.31 64.38 64.20 65.27 67.17 66.93 66.75 66.40 65.50 64.40 63.90
46.32 44.92 45.34 44.58 44.72 45.62 46.83 48.24 50.28 53.82 56.58 55.43 56.59 55.24 57.17 59.39 60.46 62.22 63.64 62.85 63.01 62.45 63.19 63.66 63.12 62.58 63.15 62.79 65.66 65.23 64.90 64.56 63.46
46.10 45.30 44.60 43.74 43.65 44.57 45.73 47.28 49.47 51.59 54.47 56.55 55.89 53.82 51.44 55.23 56.06 56.57 57.57 62.30 62.14 62.50 62.67 62.91 62.26 61.95 61.07 63.07 62.51 63.17 63.58 63.31 62.98
45.92 45.99 44.64 43.51 43.63 44.03 44.69 48.69 49.53 49.54 49.31 53.79 57.73 57.98 57.03 53.29 52.19 53.84 53.45 54.37 58.20 62.25 62.24 62.09 61.51 61.16 60.52 60.97 60.95 62.32 62.72 62.68 62.14
45.61 45.50 44.65 43.39 43.53 43.70 44.44 47.06 46.82 48.17 49.00 50.03 52.22 55.86 57.04 56.96 53.61 50.65 51.50 53.01 51.75 52.05 58.06 61.51 61.08 60.17 59.88 59.75 60.86 62.00 61.97 62.03 61.90